{"data":{"norad_id":38045,"epoch":"2026-05-25T03:00:33.452352Z","epoch_age_seconds":74594,"freshness":"FRESH","line1":"1 38045U 11080F   26145.12538718 -.00000101  00000+0  15045-4 0  9994","line2":"2 38045  51.9917  38.6138 0001425  24.8533 138.8499 12.62286090666747","mean_motion":12.6228609,"eccentricity":0.0001425,"inclination_deg":51.9917,"raan_deg":38.6138,"arg_perigee_deg":24.8533,"mean_anomaly_deg":138.8499,"bstar":1.5045e-5,"rev_number":66674,"period_min":114.07873471853,"perigee_km":1412.4123976021,"apogee_km":1414.6330206192,"semimajor_km":7791.6597091107,"source":"CELESTRAK","updated_at":"2026-05-25T13:38:23.045871Z"}}